Regional Weather Roundup
Issued by NWS

Home | Current Version | Previous Version | Graphics & Text | Print | Product List | Glossary On
Versions: 1 2 3 4 5 6 7 8 9 10 11 12 13 14 15 16 17 18 19 20 21 22 23 24 25 26 27 28 29 30 31 32 33 34 35 36 37 38 39 40 41 42 43 44 45 46 47 48 49 50
000
ASUS43 KLMK 090102
RWRKY
KENTUCKY REGIONAL WEATHER ROUNDUP
NATIONAL WEATHER SERVICE LOUISVILLE KY
800 PM EST THU DEC 08 2016

NOTE "FAIR" INDICATES FEW OR NO CLOUDS BELOW 12,000 FEET
WITH NO SIGNIFICANT WEATHER AND/OR OBSTRUCTIONS TO VISIBILITY.

KYZ001>023-026-027-061>063-070>075-090200-
WESTERN AND SOUTH CENTRAL KENTUCKY

CITY           SKY/WX    TMP DP  RH WIND       PRES   REMARKS
PADUCAH        CLEAR     29  13  51 NW6       30.53R WCI  23
HENDERSON      CLOUDY    28  14  54 NW12      30.52R WCI  18
OWENSBORO      CLOUDY    28  18  66 NW14      30.51R WCI  17
HOPKINSVILLE   CLEAR     29  14  53 NW7       30.48R WCI  22
BOWLING GREEN  CLEAR     30  16  56 VRB6      30.48R WCI  24
GLASGOW        NOT AVBL
$$

KYZ024-025-028>034-038-045-046-053-090200-
NORTH CENTRAL KENTUCKY

CITY           SKY/WX    TMP DP  RH WIND       PRES   REMARKS
LOUISVILLE/SDF MOCLDY    27  11  51 NW18      30.46R WCI  14
LOUISVILLE/LOU CLOUDY    28  14  55 NW13      30.46R WCI  17
FORT KNOX      CLOUDY    26  13  57 NW13      30.43R WCI  15
$$

KYZ035>037-039>044-047>052-055>060-089>105-090200-
NORTHEAST KENTUCKY

CITY           SKY/WX    TMP DP  RH WIND       PRES   REMARKS
LEXINGTON      PTCLDY    26  14  60 NW10      30.39R WCI  16
COVINGTON      FLURRIES  24  14  65 NW14      30.39S WCI  12
FRANKFORT      PTCLDY    26  13  57 NW10G21   30.41R WCI  16
$$

KYZ054-064>069-076>088-106>120-090200-
SOUTHEAST KENTUCKY

CITY           SKY/WX    TMP DP  RH WIND       PRES   REMARKS
JACKSON        CLEAR     27  15  61 W7        30.33R WCI  19
LONDON         CLEAR     28  14  55 W8        30.37R WCI  20
SOMERSET       PTCLDY    28  14  54 CALM      30.42R
MIDDLESBORO    CLEAR     31  16  53 NW8       30.37R WCI  24
MONTICELLO     PTCLDY    26  18  71 W7        30.43R WCI  18
$$




USA.gov is the U.S. government's official web portal to all federal, state and local government web resources and services.